Tracking 19562 objects as of 24-Mar-2019
HD Live streaming from Space Station
objects crossing your sky now

RADUGA 9

Track RADUGA 9 now!
RADUGA 9 is classified as:


NORAD ID: 12618
Int'l Code: 1981-069A
Perigee: 35,798.9 km
Apogee: 35,835.3 km
Inclination: 12.4 °
Period: 1,437.3 minutes
Semi major axis: 42188 km
RCS: 7.0794 m2 (large)
Launch date: July 30, 1981
Source: Commonwealth of Independent States (former USSR) (CIS)
Launch site: TYURATAM MISSILE AND SPACE COMPLEX (TTMTR)
aabbcc
Your satellite tracking list
Your tracking list is empty




NASA's NSSDC Master Catalog

Two Line Element Set (TLE):
1 12618U 81069A   19081.67521635 -.00000136 +00000-0 +00000-0 0  9997
2 12618 012.3521 321.0883 0004315 031.4872 149.0533 01.00188433020833
Source of the keplerian elements: AFSPC